Location: Temple Hill
(37.3073°N, 88.6303°W)
Time: 17:37:49
(UTC+00:00)

Sich 1 - Pass Details

Date: 23 November 2020
Orbit: 593 x 626 km, 82.5° (Epoch: 20 January)

Event Time Altitude Azimuth Distance (km) Brightness Sun altitude
Rises 23:14:35 0° 4° (N) 2,903 6.3 -7.3°
Reaches altitude 10° 23:17:03 10° 15° (NNE) 1,988 5.3 -7.7°
Maximum altitude 23:20:57 30° 77° (ENE) 1,101 3.8 -8.5°
Drops below altitude 10° 23:24:47 10° 139° (SE) 1,958 5.4 -9.2°
Sets 23:27:11 0° 150° (SSE) 2,851 6.4 -9.7°
